FW2780 Weather Reports


time (UTC)temp
C
wind
direction
speed
KPH
gust
KPH
rain 1hr
cm
rain 24hr
cm
rain mn
cm
humidity
%
barometer
mb
20260508183036 6 320 4.8 12.9 0.00 1.37 0.03 89 1003.2
20260508181533 6 310 4.8 12.9 0.00 1.37 0.03 90 1002.9
20260508180032 6 5 1.6 6.4 0.00 1.37 0.03 90 1002.8
20260508174530 6 29 3.2 8.0 0.00 2.13 0.03 89 1002.8
20260508173030 6 28 3.2 8.0 0.00 2.13 0.03 89 1003.0
20260508171535 7 25 1.6 9.7 0.00 2.13 0.03 88 1003.1
20260508170029 7 319 4.8 9.7 0.00 2.13 0.03 88 1003.1
20260508164525 7 348 4.8 8.0 0.00 2.13 0.03 86 1003.0
20260508163027 7 354 3.2 9.7 0.00 2.13 0.03 85 1002.8
20260508161532 8 80 3.2 12.9 0.00 2.13 0.03 85 1002.8
20260508160026 8 341 1.6 8.0 0.00 2.13 0.03 85 1002.8
20260508154520 8 352 3.2 8.0 0.00 2.13 0.03 85 1002.9
20260508153020 8 348 1.6 11.3 0.00 2.13 0.03 86 1002.9
20260508151518 8 342 0.0 8.0 0.00 2.13 0.03 87 1003.1
20260508150022 8 352 1.6 6.4 0.00 2.13 0.03 87 1003.1
20260508144534 7 341 0.0 6.4 0.00 2.13 0.03 88 1003.2
20260508143026 8 114 0.0 4.8 0.00 2.13 0.03 90 1003.3
20260508141522 8 104 0.0 6.4 0.00 2.13 0.03 92 1003.6
20260508140013 8 114 1.6 4.8 0.00 2.13 0.03 93 1003.7
20260508134512 7 112 0.0 4.8 0.00 2.13 0.03 94 1003.6
20260508133013 7 112 1.6 6.4 0.00 2.13 0.03 94 1003.3
20260508131511 7 117 0.0 6.4 0.00 2.13 0.03 95 1003.2
20260508130013 7 123 3.2 9.7 0.00 2.13 0.03 95 1003.0
20260508124511 7 178 1.6 4.8 0.00 2.13 0.03 96 1003.1
20260508123009 7 177 1.6 4.8 0.00 2.13 0.03 96 1003.2
20260508121515 7 177 0.0 3.2 0.00 2.13 0.03 96 1003.2
20260508120009 6 177 0.0 3.2 0.00 2.13 0.03 96 1003.3
20260508114524 6 177 0.0 3.2 0.00 2.13 0.03 97 1003.3
20260508113006 6 177 0.0 3.2 0.00 2.13 0.03 96 1003.4
20260508111505 5 177 0.0 1.6 0.00 2.13 0.03 96 1003.7
20260508110103 6 177 1.6 4.8 0.00 2.13 0.03 96 1003.6
20260508104501 5 177 0.0 4.8 0.00 2.13 0.03 96 1003.5
20260508103107 6 177 0.0 6.4 0.00 2.13 0.03 97 1003.6
20260508101558 5 177 1.6 4.8 0.00 2.13 0.03 97 1003.3
20260508100057 5 176 0.0 9.7 0.00 2.13 0.03 97 1002.9
20260508094557 5 176 0.0 1.6 0.00 2.13 0.03 96 1002.8
20260508093057 5 176 0.0 9.7 0.00 2.13 0.03 96 1002.9
20260508091555 5 165 4.8 11.3 0.03 2.13 0.03 96 1003.0
20260508090059 5 174 4.8 11.3 0.03 2.13 0.03 96 1002.7
20260508084554 5 172 4.8 11.3 0.03 2.13 0.03 96 1002.5
20260508083054 5 163 3.2 11.3 0.03 2.13 0.03 96 1002.2
20260508081601 5 168 4.8 11.3 0.00 2.11 0.00 96 1002.4
20260508080052 6 155 3.2 12.9 0.00 2.11 0.00 96 1002.0
20260508074553 6 167 6.4 12.9 0.00 2.11 0.00 96 1002.1
20260508073055 6 243 0.0 6.4 0.00 2.11 0.00 96 1002.2
20260508071546 6 260 1.6 3.2 0.00 2.11 0.00 96 1002.4
20260508070045 6 260 0.0 1.6 0.00 2.11 0.00 96 1002.7
20260508064600 6 260 0.0 4.8 0.00 2.11 0.00 96 1002.4
20260508063042 6 260 0.0 4.8 0.00 2.11 0.00 96 1002.4
20260508061549 6 261 0.0 0.0 0.00 2.11 0.00 96 1002.5
20260508060040 5 261 0.0 0.0 0.00 2.11 0.00 96 1002.6
20260508054600 5 261 0.0 0.0 0.00 2.11 0.00 96 1002.9
20260508053036 5 261 0.0 0.0 0.00 2.11 0.00 96 1003.1
20260508051534 5 261 0.0 0.0 0.00 2.11 0.00 96 1002.9
20260508050037 5 261 0.0 3.2 0.00 2.11 0.00 95 1003.2
20260508044532 6 260 1.6 3.2 0.00 2.11 0.00 96 1003.0
20260508043042 5 260 0.0 3.2 0.00 2.11 0.00 96 1003.1
20260508041534 5 260 0.0 3.2 0.00 2.11 0.00 96 1003.2
20260508040029 5 261 0.0 8.0 0.00 2.11 0.00 95 1003.3
20260508034529 5 256 1.6 9.7 0.00 2.11 0.00 95 1003.4
20260508033024 6 288 8.0 14.5 0.00 2.11 0.00 93 1003.5
20260508031519 8 279 3.2 9.7 0.00 2.11 0.00 95 1003.2
20260508030016 8 167 0.0 3.2 0.03 2.11 0.00 95 1003.0
20260508024519 8 199 1.6 11.3 0.03 2.11 2.11 95 1002.6
20260508023015 8 300 3.2 6.4 0.05 2.11 2.11 95 1002.9
20260508021514 8 301 0.0 1.6 0.05 2.11 2.11 95 1002.8
20260508020014 8 301 0.0 0.0 0.05 2.11 2.11 95 1003.5
20260508014513 8 301 0.0 1.6 0.05 2.11 2.11 94 1003.6
20260508013012 8 301 0.0 1.6 0.05 2.08 2.08 95 1003.3
20260508011512 8 301 0.0 1.6 0.05 2.06 2.06 95 1003.2
20260508010021 8 301 0.0 1.6 0.10 2.06 2.06 94 1003.3
20260508004516 8 301 0.0 0.0 0.10 2.03 2.03 94 1003.4
20260508003009 8 301 0.0 3.2 0.10 2.03 2.03 94 1003.5
20260508001509 8 300 4.8 12.9 0.08 2.01 2.01 93 1003.2
20260508000122 8 300 4.8 12.9 0.05 1.96 1.96 93 1003.3
20260507234508 9 243 0.0 11.3 0.03 1.93 1.93 93 1002.8
20260507233003 8 260 4.8 14.5 0.00 1.93 1.93 92 1002.7
20260507231502 8 277 9.7 29.0 0.00 1.93 1.93 91 1002.5
20260507230104 9 60 19.3 40.2 0.00 1.93 1.93 85 1002.3
20260507224559 12 172 6.4 16.1 0.00 1.93 1.93 90 1001.6
20260507223103 12 178 6.4 19.3 0.00 1.93 1.93 90 1001.6
20260507221602 12 181 8.0 17.7 0.00 1.93 1.93 90 1001.6
20260507220057 12 172 6.4 19.3 0.00 1.93 1.93 90 1001.5
20260507214556 12 184 6.4 24.1 0.00 1.93 1.93 90 1001.5
20260507213056 12 183 6.4 19.3 0.00 1.93 1.93 91 1001.4
20260507211601 12 183 6.4 22.5 0.03 1.93 1.93 91 1001.4
20260507210054 12 161 9.7 22.5 0.05 1.93 1.93 92 1001.4
20260507204555 12 137 4.8 24.1 0.18 1.93 1.93 92 1001.5
20260507203053 12 103 11.3 25.7 0.30 1.93 1.93 92 1000.7
20260507201552 12 129 12.9 29.0 0.41 1.91 1.91 93 1000.4
20260507200047 12 167 9.7 32.2 0.43 1.85 1.85 92 1001.2
20260507194544 12 159 11.3 25.7 0.43 1.75 1.75 92 1002.0
20260507193046 12 101 8.0 19.3 0.46 1.63 1.63 92 1003.1
20260507191538 12 183 9.7 24.1 0.51 1.50 1.50 92 1003.2
20260507190038 12 160 8.0 22.5 0.61 1.40 1.40 91 1003.3
20260507184533 13 212 11.3 20.9 0.94 1.30 1.30 91 1003.5